Retour au catalogue

STARLINK-35200

ActifCommunicationsVLEO
NORAD 65855·PAYLOAD·🇺🇸 United States

Lancé Oct 3, 2025 depuis Vandenberg Space Force Base

Loading…

Prochains Passages (prochaines 24 heures)

TLE

FraisSource: CelesTrak SupGP

Époque: Sep 14, 2026, 21:20 UTC

1 65855C 25223B   26257.88937500 -.00059024  00000+0 -17440-2 0  2571
2 65855  53.1571 133.6369 0001228  84.5932  48.6414 15.34418378    10

Suivez STARLINK-35200 en temps réel avec AllMySat

Download on the App Store